Location: Newark
(3.0500°N, 36.0167°E)
Time: 18:43:27
(UTC+00:00)

A-11 Canister half - Pass Details

Date: 01 September 2019
Orbit: 1527 x 1682 km, 47.3° (Epoch: 15 October)

Event Time Altitude Azimuth Distance (km) Brightness Sun altitude
Rises 13:33:03 0° 342° (NNW) 4,921 12.0 30.9°
Reaches altitude 10° 13:37:09 10° 356° (N) 3,931 11.4 29.8°
Maximum altitude 13:44:48 24° 46° (NE) 2,948 10.4 27.9°
Drops below altitude 10° 13:52:19 10° 95° (E) 3,885 10.6 26.1°
Sets 13:56:16 0° 109° (ESE) 4,850 11.1 25.1°
